Dewpoint
-18 -13 -14 -3 -1 -1 -1 -3 -6 -9 -7 -7 -6 -5 -4 -3 2 5 7 4 4 -1 -6 -8 -9 -6 -6 -5 0 4 7 9 10 10 10 10 11 10 9 10 11 11 11 12 12 11 11 10 9
-14 -3 -1 -3 -3 -1 -2 -4 -6 -7 -5 -7 -8 -4 -4 -1 3 7 6 4 -2 -6 -8 -10 -7 -5 -6 -4 2 4 7 8 9 10 10 10 11 11 10 10 9 10 10 11 12 11 10 10 8
-8 2 3 -5 -4 -1 -1 -6 -10 -5 -6 -6 -6 -6 -6 -5 2 2 3 1 -1 -8 -9 -8 -6 -7 -7 -4 2 5 7 7 7 8 9 10 11 11 10 9 9 10 9 11 10 7 10 10 8
-4 0 1 -6 -4 -5 -5 -8 -12 -6 -7 -7 -7 -6 -7 -6 2 2 2 3 -3 -8 -7 -6 -5 -7 -7 -5 1 4 5 6 6 7 10 11 12 11 10 9 6 5 6 9 9 7 9 10 7
-4 -1 -5 -5 -6 -8 -10 -12 -14 -7 -8 -8 -8 -7 -7 -5 -3 2 -2 4 -5 -6 -5 -4 -3 -5 -7 -7 -3 3 5 5 6 8 10 12 12 11 11 10 6 5 5 5 8 8 9 7 7
-1 -2 -2 -3 -5 -7 -9 -10 -11 -8 -7 -8 -8 -7 -3 -2 1 3 1 4 0 -2 -3 -4 -3 -3 -4 -6 -6 -1 3 5 5 6 9 12 12 12 11 10 6 6 4 5 6 8 8 6 8
2 -2 -3 -4 -4 -6 -8 -9 -12 -8 -7 -6 -8 -6 -4 0 2 3 3 3 5 4 1 -2 -4 -3 -3 -3 -5 -4 -0 5 6 5 7 11 12 12 12 11 8 7 5 5 7 7 5 4 8
1 -3 -2 -3 -3 -4 -7 -7 -8 -12 -8 -8 -8 -6 -5 3 1 4 4 4 6 6 5 1 -3 -4 -3 -2 -3 -4 -2 3 5 6 7 9 11 12 11 11 11 8 5 6 7 5 6 7 9
-3 -2 -1 -2 -3 -4 -6 -6 -7 -12 -12 -12 -11 -7 -3 1 3 4 6 6 6 7 4 5 -1 -4 -4 -3 -2 -2 -2 1 4 5 6 7 9 11 12 12 11 9 6 6 5 6 7 8 7
-4 -1 -1 -4 -5 -5 -6 -6 -6 -10 -11 -12 -7 -6 -3 -2 -2 0 6 9 9 9 7 2 3 -1 -3 -3 -2 -1 -1 -2 2 4 5 6 7 9 10 12 12 11 7 7 6 7 7 7 7
-6 -4 -5 -5 -5 -5 -5 -5 -6 -8 -9 -10 -9 -8 -6 -5 -4 -1 0 4 7 7 6 -0 -1 2 -0 -2 -2 -2 -1 -1 -0 2 3 5 7 9 10 11 12 11 9 8 8 8 7 6 6
-5 -7 -6 -6 -6 -6 -5 -5 -6 -6 -7 -7 -9 -9 -9 -10 -7 -7 -2 4 5 8 7 4 -0 -1 2 1 -1 -1 -1 -1 -0 1 2 5 6 7 9 11 11 12 10 9 9 8 7 7 6
-6 -7 -7 -7 -7 -7 -6 -5 -5 -6 -7 -6 -7 -7 -6 -8 -8 -6 -5 -4 -1 6 7 6 5 4 4 3 0 2 1 0 0 2 2 4 5 6 8 11 11 11 11 10 9 8 7 7 7
-6 -5 -6 -6 -7 -8 -7 -6 -6 -6 -6 -6 -6 -6 -6 -6 -7 -7 -5 -4 -4 -3 4 7 7 7 8 7 4 2 6 3 3 3 4 4 6 8 10 11 12 12 11 11 10 9 8 8 8
-9 -8 -7 -7 -6 -6 -6 -6 -6 -7 -6 -6 -6 -7 -7 -7 -6 -6 -6 -5 -4 -4 -3 4 9 9 9 8 10 8 8 8 5 7 7 8 6 9 12 11 11 12 11 11 11 10 9 8 8
-8 -8 -5 -7 -6 -6 -6 -4 -6 -7 -7 -6 -6 -7 -7 -7 -7 -6 -5 -4 -5 -4 -3 -3 7 9 8 8 10 8 5 9 8 14 11 11 12 11 13 13 12 12 12 11 11 10 9 9 9
-7 -5 -6 -6 -8 -6 -6 -5 -7 -7 -7 -7 -7 -6 -6 -6 -7 -6 -5 -5 -3 -3 -3 -2 5 7 7 8 7 3 3 4 6 13 15 14 13 13 13 13 13 13 12 12 11 11 10 9 9
-7 -5 -7 -6 -8 -7 -6 -6 -7 -8 -8 -8 -10 -9 -8 -6 -7 -6 -4 -4 -4 -3 -2 3 10 10 9 8 8 10 8 7 7 8 13 14 14 13 13 13 13 13 13 12 12 11 11 10 9
-11 -9 -8 -10 -11 -10 -10 -6 -6 -7 -8 -8 -9 -11 -11 -5 -5 -4 -5 -4 -6 -4 -4 -3 -3 -3 -1 6 10 9 9 9 8 9 12 13 13 13 13 13 13 13 13 12 12 11 11 9 9
-8 -8 -8 -10 -11 -9 -9 -9 -9 -9 -10 -10 -11 -12 -12 -12 -8 -8 -9 -6 -5 -4 -4 0 0 1 5 6 4 5 9 9 6 8 9 12 12 13 13 13 13 13 13 12 12 12 11 10 9
-9 -7 -6 -6 -9 -11 -12 -11 -8 -9 -10 -10 -10 -13 -13 -12 -12 -10 -4 -0 0 1 0 -1 -0 1 1 5 8 7 6 11 11 12 12 13 12 12 13 13 13 13 12 12 11 11 10 10 10
-8 -9 -7 -7 -8 -6 -9 -5 -8 -9 -8 -9 -11 -13 -12 -10 -9 -6 -2 0 2 2 2 2 4 2 7 10 8 8 8 7 9 10 10 12 12 12 12 12 12 12 12 12 11 10 10 10 9
-13 -13 -9 -6 -5 -5 -5 -4 -5 -8 -8 -9 -11 -11 -12 -9 -3 -1 1 3 4 4 3 2 1 5 9 11 10 9 9 10 8 10 12 11 11 11 11 13 12 12 12 12 11 9 11 10 10
-13 -13 -9 -7 -6 -2 -4 -3 -4 -6 -7 -8 -10 -11 -12 -11 -4 -2 0 3 5 5 4 3 7 9 9 8 9 11 11 12 12 12 12 11 11 11 11 12 12 12 11 12 10 10 11 11 11
-7 0 2 0 -1 -1 -4 -1 -3 -6 -7 -8 -8 -1 -8 -2 -0 0 1 2 2 3 3 3 2 7 9 10 9 8 11 13 12 11 11 10 10 11 11 11 11 11 11 11 11 10 10 10 10
-6 2 6 6 3 -0 -2 0 -3 -7 -8 -8 -8 1 -0 -1 -1 1 1 1 2 1 2 4 3 3 9 10 11 10 10 11 11 11 10 11 10 11 11 11 11 11 11 11 11 10 10 11 11
-8 -2 2 6 4 6 1 -3 -5 -6 -5 -5 -7 0 1 1 0 -0 -0 -0 1 1 2 4 4 1 2 6 8 9 9 9 10 11 11 12 12 11 11 11 11 11 10 10 10 11 10 11 10
-5 -1 3 4 6 6 2 -1 -0 -2 4 4 3 2 1 1 -1 -2 -1 -0 0 1 2 3 3 2 -0 2 4 6 8 9 10 10 12 11 12 11 11 11 11 11 10 11 11 11 10 10 10
-6 -1 1 4 4 4 6 1 5 5 5 5 3 2 -3 -4 -6 -7 -4 -3 -1 0 2 3 4 3 1 0 1 4 6 8 9 10 12 12 12 11 11 10 10 10 11 11 10 9 9 9 10
-5 1 5 5 4 3 3 4 2 3 3 2 2 -2 -1 -11 -12 -13 -14 -5 -3 2 3 4 5 4 2 1 0 1 5 7 8 9 10 12 12 11 11 10 10 10 9 9 9 9 9 9 9
Wind_Speed
6 4 3 1 3 3 6 9 11 10 3 13 17 15 9 7 5 5 24 15 14 13 11 8 6 6 5 5 7 9 11 12 11 10 10 9 7 8 8 9 10 11 10 9 8 9 9 9 10
10 7 3 4 3 0 7 11 15 10 5 19 13 11 9 1 23 27 25 15 13 14 13 11 9 7 5 7 9 10 12 13 12 11 9 8 8 8 9 10 8 7 6 10 13 10 8 9 9
11 7 3 4 4 6 7 5 6 4 15 10 5 6 3 8 22 27 20 18 16 16 14 13 10 8 7 7 10 12 13 13 12 11 9 9 10 9 10 8 8 2 1 8 12 12 12 9 7
7 6 7 0 10 11 18 18 8 3 12 8 6 5 4 6 22 23 23 20 15 17 16 14 11 9 8 8 9 11 12 12 12 12 11 10 11 12 10 12 8 1 2 7 8 16 17 13 7
9 5 3 4 9 12 19 24 17 6 8 11 6 2 5 19 18 23 24 22 13 18 17 15 12 10 9 9 9 10 10 10 11 12 12 11 12 11 10 14 7 7 4 3 11 18 19 17 11
6 6 1 7 12 18 17 30 18 6 9 12 8 4 5 19 22 26 24 24 17 15 18 16 15 12 10 10 9 10 11 10 10 11 13 13 12 11 13 16 6 6 4 2 6 20 18 15 11
5 3 5 7 11 16 18 23 5 7 9 6 10 5 12 17 20 24 22 24 23 18 17 18 16 15 13 11 11 10 11 12 11 12 13 13 13 12 13 16 10 2 7 4 15 16 13 10 13
23 1 8 8 11 16 24 24 22 8 6 12 15 7 4 20 24 21 22 24 25 23 20 19 19 18 15 14 13 12 12 13 12 12 13 14 14 13 13 15 16 5 7 9 15 16 12 9 11
24 8 12 11 16 15 27 19 28 10 5 7 10 17 18 23 22 23 21 25 26 26 24 22 20 21 18 16 16 15 14 15 15 15 14 15 16 16 17 16 18 10 11 9 12 12 13 13 15
8 8 15 10 11 14 24 20 20 13 6 8 10 20 17 18 18 22 24 23 25 26 27 25 23 23 22 20 20 18 18 17 18 18 17 17 17 18 17 18 19 15 15 12 12 14 13 15 16
15 17 13 19 27 32 25 25 27 9 6 13 11 20 20 15 18 19 18 25 30 30 29 25 26 25 24 24 23 23 22 20 20 20 19 19 19 19 20 21 21 19 20 17 17 17 17 18 18
17 23 24 26 35 36 24 26 17 13 15 23 13 14 24 28 25 25 27 28 29 31 27 21 22 25 25 25 25 25 25 24 23 22 22 21 22 22 21 22 23 23 23 22 21 19 19 18 18
18 15 26 29 30 30 31 22 20 28 23 30 28 24 19 19 18 16 28 26 20 27 28 26 24 23 24 25 26 26 26 27 26 25 24 24 24 24 23 24 24 23 24 24 23 21 22 21 19
15 20 20 24 25 27 16 20 21 29 28 27 35 35 31 27 22 20 17 21 22 23 23 29 29 25 23 23 25 26 26 27 27 27 27 26 26 26 26 26 28 25 24 23 24 21 23 22 20
17 13 16 15 18 16 21 19 17 26 28 37 31 36 40 36 29 25 22 21 20 22 23 24 28 29 25 28 24 25 26 28 29 27 26 25 26 27 27 28 29 27 23 24 24 22 22 21 20
9 8 7 8 11 15 18 26 12 25 24 31 39 38 41 43 38 32 28 23 25 28 26 27 30 28 28 30 26 26 27 24 30 29 27 26 26 26 29 29 29 27 26 26 26 25 26 28 22
5 9 12 20 14 16 15 21 17 31 28 28 33 36 40 44 43 38 37 32 24 26 29 26 34 32 28 26 24 18 21 24 25 28 31 30 28 28 28 30 29 29 27 27 27 30 26 29 21
5 7 11 18 9 13 19 13 14 19 21 18 25 31 32 40 40 38 29 25 24 25 20 20 24 23 28 23 25 26 25 25 24 31 27 31 33 31 32 31 31 31 29 28 28 32 30 25 26
16 16 20 19 18 10 15 8 11 10 20 19 26 26 31 9 14 22 23 26 22 22 19 16 15 12 13 17 29 29 30 31 30 28 35 27 32 34 33 33 33 35 34 27 28 31 31 25 26
14 16 15 14 10 10 13 18 10 5 15 21 24 21 24 30 15 18 20 28 21 18 17 10 11 13 11 13 18 23 29 34 33 31 29 36 32 33 36 35 36 37 33 29 29 31 35 29 30
14 13 9 14 14 11 12 14 8 6 17 33 31 28 26 27 24 15 21 23 19 15 12 12 17 22 22 22 21 24 27 30 32 35 31 29 37 35 33 35 36 35 36 31 29 32 37 32 38
17 9 10 12 10 11 2 12 17 6 14 19 25 26 25 25 15 21 17 12 13 10 5 9 12 18 19 18 21 27 28 33 36 37 29 26 28 39 35 34 34 37 38 34 32 30 37 35 40
21 20 17 10 8 7 12 6 23 8 11 14 20 28 26 18 11 17 22 21 14 10 6 3 10 8 15 16 15 24 29 27 35 36 34 28 26 30 39 36 36 36 35 34 32 32 37 40 42
16 22 17 8 4 10 15 5 20 13 13 13 16 29 37 23 14 23 22 16 16 9 5 5 8 8 11 13 17 21 24 24 27 30 30 32 30 34 36 36 33 33 33 34 31 35 37 40 44
17 13 6 9 7 12 10 9 18 11 12 16 18 12 14 34 30 22 22 19 12 8 7 6 9 11 8 12 17 17 25 20 23 28 26 28 31 35 39 40 37 35 34 31 33 33 35 44 43
8 3 5 6 5 11 7 11 16 9 15 28 29 14 31 29 26 25 20 16 14 9 4 4 9 7 6 9 15 20 14 22 23 24 25 26 25 27 33 36 35 33 30 30 30 29 32 38 46
10 7 2 7 8 7 5 8 11 18 22 17 21 21 30 25 21 21 17 13 11 6 2 2 10 11 12 13 13 16 14 17 23 26 28 29 26 22 21 33 33 30 30 31 30 32 32 40 42
5 3 4 3 4 5 5 7 6 14 9 14 9 16 22 22 16 18 17 15 12 7 5 6 11 14 15 16 14 19 19 16 19 28 25 30 24 25 24 24 30 32 33 33 32 32 34 39 44
12 8 1 3 6 3 4 3 13 21 21 11 15 17 19 14 12 12 8 7 5 4 6 4 7 12 14 17 20 18 18 18 19 20 28 30 25 26 26 25 24 26 33 33 33 31 30 32 33
6 4 3 4 4 2 3 2 14 21 20 13 14 8 11 12 15 10 5 5 12 10 8 2 4 10 14 18 22 23 20 18 19 21 28 24 27 28 29 26 25 23 26 26 28 31 26 27 28
Wind_Direction
212 171 187 223 40 94 261 261 237 295 306 97 74 79 95 117 100 151 130 138 135 141 128 118 107 106 102 117 139 149 153 156 156 158 156 155 151 146 137 135 135 139 141 129 134 143 146 153 144
174 156 245 270 129 10 265 242 278 281 118 111 103 67 65 114 121 136 134 147 138 142 130 124 126 129 121 122 136 146 150 154 157 161 160 157 155 152 151 150 148 137 144 145 138 124 138 151 143
181 179 249 165 193 204 249 241 309 76 75 78 72 82 64 137 146 152 154 160 151 136 132 126 123 127 120 122 136 146 150 153 156 163 162 163 163 162 164 154 120 140 150 178 149 153 152 153 148
178 196 250 122 254 254 243 278 247 136 104 97 111 114 199 169 146 156 161 157 148 143 145 134 128 125 123 123 135 145 148 152 156 161 166 166 171 176 180 140 111 64 115 179 202 170 166 153 156
192 254 233 215 247 262 271 265 271 200 151 149 156 228 159 161 156 158 161 162 173 157 158 154 151 137 135 134 138 150 154 155 156 160 163 169 180 184 175 159 104 129 145 134 211 188 168 149 168
214 218 243 234 252 260 265 275 283 189 138 140 136 102 87 151 152 159 162 169 179 170 173 174 171 169 157 151 152 159 161 163 164 166 167 176 186 186 184 175 133 119 169 312 174 177 159 155 171
234 326 234 241 263 282 273 285 301 207 189 149 160 131 150 155 152 162 165 172 181 192 189 191 191 186 183 175 172 172 169 173 173 175 176 181 186 192 194 196 204 163 176 152 174 175 163 159 181
245 217 276 264 262 268 278 301 314 220 205 203 188 167 198 148 154 158 168 178 184 194 211 205 203 201 197 194 190 188 184 184 188 186 183 187 187 195 200 201 210 202 188 156 167 167 167 174 191
254 251 246 250 259 270 289 294 307 242 193 217 244 185 172 159 162 156 166 185 188 195 213 215 210 208 206 206 204 202 200 196 199 200 199 194 193 194 205 209 208 212 203 186 180 183 181 195 191
222 245 241 244 264 270 281 291 330 310 230 250 173 156 157 166 175 188 181 184 197 202 215 221 219 214 213 212 211 211 211 211 208 209 208 205 203 202 209 213 210 213 209 203 188 190 194 200 199
249 249 261 268 273 276 280 301 307 314 295 231 207 191 184 167 183 190 210 211 215 226 230 229 226 219 218 219 215 215 216 218 217 216 217 214 213 208 211 215 217 212 208 208 198 193 201 199 193
246 251 250 252 255 263 272 282 292 289 293 304 275 253 216 224 219 206 203 212 222 223 231 229 230 230 226 222 225 220 220 222 223 220 222 219 218 219 217 216 220 219 215 213 206 201 204 202 189
257 261 262 265 268 269 270 270 270 278 291 291 296 284 289 250 248 282 215 214 216 219 231 234 229 231 234 232 231 226 222 224 226 224 226 223 223 224 218 222 222 218 218 222 217 205 209 204 197
277 280 279 279 271 272 269 267 271 270 282 284 283 289 288 280 265 238 221 222 220 234 225 230 231 230 236 238 238 236 228 228 224 224 227 226 225 224 220 222 226 223 223 230 223 215 211 212 210
310 312 308 293 277 281 292 281 255 263 266 279 271 276 280 277 267 250 241 230 234 239 242 227 226 227 232 248 242 243 235 228 229 227 226 227 229 223 222 223 228 226 225 226 224 218 215 211 219
315 301 286 280 302 278 262 271 276 273 265 261 263 261 260 261 262 249 244 248 250 243 238 245 225 221 229 241 246 251 247 234 224 227 233 234 230 229 226 226 229 232 230 225 220 214 208 207 214
236 261 276 286 263 274 269 270 264 251 246 255 257 253 251 250 247 241 239 237 234 241 237 241 225 222 229 238 243 245 253 251 237 221 223 232 235 231 231 230 229 228 226 223 222 215 215 216 212
244 258 270 271 268 255 256 274 301 305 300 306 301 299 280 246 234 234 218 219 229 221 214 207 197 212 225 232 240 247 249 250 248 229 226 225 228 230 230 232 232 228 224 221 224 220 217 230 227
246 252 264 275 286 275 281 239 267 283 296 299 296 302 321 248 193 200 218 215 214 200 192 193 200 205 209 220 231 238 245 248 249 246 224 227 229 229 229 229 230 233 229 226 225 223 222 219 221
253 255 265 284 282 275 274 275 248 258 281 282 287 292 296 295 249 199 198 206 186 187 207 224 243 253 256 263 259 250 246 249 258 256 247 225 229 231 231 230 228 232 232 227 223 223 219 216 203
281 260 266 260 274 276 282 277 266 241 258 274 276 281 280 293 305 196 168 157 162 174 201 240 262 268 262 263 263 257 252 244 245 248 247 234 228 227 231 232 231 229 230 235 231 224 224 218 208
300 321 307 311 290 278 261 284 271 260 241 263 268 271 269 266 301 172 165 144 159 157 198 255 278 277 259 258 253 249 247 243 239 245 249 234 231 230 232 225 228 229 231 233 235 231 232 222 211
290 300 292 285 296 299 270 280 284 222 245 241 260 263 263 224 143 122 125 133 141 143 169 296 288 307 261 257 254 237 244 248 245 243 240 239 238 227 231 233 233 227 229 234 236 232 221 229 224
289 277 283 270 267 268 265 231 277 273 264 248 258 259 254 230 247 174 136 115 113 97 55 359 284 305 283 285 274 257 248 245 244 245 245 246 241 237 230 226 229 232 231 232 233 226 235 218 220
359 353 305 269 243 250 243 245 243 284 275 264 273 267 203 164 143 134 128 109 97 69 28 2 325 277 325 296 311 315 250 252 250 254 256 247 239 232 231 235 235 231 231 236 227 231 230 233 227
331 43 266 261 249 254 261 243 255 264 260 258 270 164 133 139 131 135 130 118 100 91 45 348 326 347 357 333 325 327 275 253 249 252 255 245 238 235 230 229 231 229 231 233 230 238 239 236 234
308 291 169 298 245 257 257 279 307 281 257 253 233 150 134 136 136 136 131 128 119 128 169 328 326 339 340 310 309 306 302 274 253 246 250 252 235 232 231 225 226 228 233 235 237 234 245 237 247
290 329 352 256 276 232 241 244 256 318 4 17 43 118 119 132 135 128 117 127 146 176 230 299 322 334 350 345 316 292 296 286 278 249 251 245 234 236 231 228 224 222 230 232 235 240 241 240 236
333 290 235 296 262 282 327 283 359 2 325 40 4 325 100 126 112 97 132 144 141 228 227 261 311 337 347 345 341 331 289 280 279 272 245 241 235 233 230 227 237 233 231 232 235 236 234 237 237
297 18 34 242 335 323 204 246 12 11 352 85 332 16 92 17 70 59 64 186 200 166 150 142 348 342 342 339 335 337 322 280 275 273 261 232 227 232 237 228 232 242 225 225 227 231 235 230 231
Height
1506 1508 1508 1509 1521 1517 1515 1490 1473 1471 1462 1455 1456 1462 1473 1474 1480 1499 1489 1491 1492 1495 1497 1499 1500 1502 1503 1504 1505 1508 1510 1512 1514 1516 1518 1520 1523 1526 1528 1530 1532 1534 1535 1538 1541 1543 1545 1547 1548
1506 1507 1508 1508 1521 1529 1511 1475 1479 1467 1458 1454 1455 1461 1469 1480 1477 1484 1486 1490 1492 1494 1496 1497 1499 1501 1502 1503 1505 1507 1509 1511 1514 1516 1519 1521 1523 1525 1527 1529 1532 1535 1536 1537 1538 1543 1547 1550 1551
1506 1506 1509 1509 1515 1520 1505 1471 1476 1463 1460 1459 1461 1464 1469 1475 1477 1480 1483 1488 1492 1494 1496 1497 1499 1500 1501 1503 1504 1507 1509 1511 1513 1515 1518 1520 1522 1525 1527 1530 1533 1534 1536 1537 1539 1540 1546 1550 1553
1505 1507 1506 1509 1511 1490 1480 1471 1475 1464 1462 1462 1464 1469 1471 1473 1475 1478 1482 1486 1490 1494 1496 1498 1499 1500 1500 1502 1504 1507 1508 1510 1512 1514 1518 1520 1522 1523 1526 1530 1532 1533 1534 1537 1537 1540 1543 1546 1551
1504 1503 1509 1508 1501 1485 1470 1466 1466 1465 1461 1462 1464 1469 1471 1471 1473 1476 1479 1482 1488 1494 1496 1497 1499 1500 1501 1502 1503 1506 1508 1509 1511 1513 1517 1520 1522 1525 1527 1529 1532 1533 1535 1536 1537 1539 1541 1545 1550
1501 1496 1509 1511 1495 1479 1469 1461 1464 1459 1458 1460 1463 1466 1472 1474 1470 1475 1477 1479 1484 1490 1494 1496 1497 1499 1501 1502 1502 1504 1507 1508 1510 1512 1515 1518 1521 1524 1527 1529 1531 1533 1534 1534 1536 1539 1541 1545 1547
1499 1498 1502 1497 1492 1480 1467 1463 1459 1457 1455 1458 1460 1466 1472 1474 1473 1475 1477 1479 1483 1486 1491 1494 1495 1497 1499 1501 1502 1503 1505 1507 1509 1511 1513 1516 1519 1523 1526 1528 1529 1532 1534 1535 1536 1540 1542 1545 1548
1496 1497 1499 1493 1488 1479 1461 1461 1464 1456 1456 1457 1459 1465 1469 1472 1473 1475 1477 1478 1481 1484 1487 1490 1493 1495 1496 1499 1500 1502 1503 1505 1507 1509 1512 1515 1517 1520 1524 1527 1529 1530 1534 1535 1536 1540 1543 1545 1548
1493 1496 1494 1492 1486 1475 1466 1461 1459 1457 1454 1455 1457 1459 1462 1467 1472 1474 1476 1477 1479 1482 1483 1486 1489 1491 1493 1495 1498 1500 1501 1503 1505 1506 1509 1512 1515 1518 1521 1524 1528 1530 1532 1535 1537 1539 1541 1543 1546
1488 1486 1483 1479 1477 1473 1467 1464 1464 1462 1455 1455 1457 1459 1461 1464 1469 1471 1473 1474 1475 1478 1480 1481 1484 1487 1489 1490 1494 1496 1498 1500 1502 1503 1506 1509 1512 1515 1519 1522 1524 1528 1529 1533 1535 1537 1539 1542 1544
1480 1478 1477 1475 1473 1470 1466 1461 1463 1462 1461 1457 1456 1458 1460 1461 1464 1467 1471 1472 1471 1473 1476 1478 1480 1482 1485 1486 1488 1491 1494 1496 1498 1500 1502 1505 1508 1511 1515 1518 1520 1523 1526 1529 1533 1534 1537 1539 1541
1477 1471 1472 1470 1469 1467 1462 1460 1455 1459 1462 1458 1456 1457 1457 1458 1459 1459 1462 1465 1468 1469 1471 1473 1476 1478 1480 1482 1484 1486 1489 1491 1494 1496 1498 1501 1503 1507 1510 1513 1517 1519 1522 1525 1529 1532 1534 1537 1538
1469 1466 1464 1463 1461 1461 1459 1453 1453 1447 1457 1456 1453 1451 1453 1456 1457 1457 1459 1462 1463 1464 1466 1467 1470 1473 1475 1478 1479 1481 1484 1486 1489 1492 1494 1497 1499 1501 1505 1508 1513 1515 1518 1522 1525 1528 1531 1533 1536
1465 1461 1459 1456 1455 1454 1454 1448 1449 1445 1450 1452 1449 1447 1449 1448 1450 1453 1457 1458 1460 1461 1460 1463 1466 1469 1471 1473 1474 1476 1479 1481 1484 1487 1490 1493 1495 1497 1500 1503 1508 1512 1514 1517 1522 1525 1528 1532 1533
1462 1462 1454 1451 1452 1451 1451 1445 1442 1444 1447 1442 1445 1444 1442 1443 1446 1446 1449 1453 1456 1458 1458 1457 1461 1465 1467 1467 1471 1473 1475 1477 1479 1481 1486 1488 1491 1494 1497 1500 1503 1508 1511 1514 1518 1522 1523 1528 1530
1467 1463 1463 1449 1448 1445 1450 1443 1440 1441 1443 1442 1437 1437 1437 1436 1437 1439 1442 1445 1450 1453 1454 1453 1454 1458 1461 1463 1466 1469 1470 1473 1475 1478 1481 1484 1487 1490 1493 1495 1499 1504 1506 1510 1514 1518 1520 1523 1527
1468 1472 1464 1449 1448 1446 1447 1442 1434 1435 1435 1434 1434 1430 1429 1428 1429 1431 1434 1440 1444 1447 1448 1448 1449 1451 1456 1461 1463 1465 1468 1468 1471 1474 1478 1480 1483 1486 1489 1491 1495 1499 1501 1505 1509 1513 1516 1519 1524
1471 1468 1457 1449 1448 1443 1439 1437 1429 1432 1432 1432 1433 1428 1421 1416 1418 1423 1429 1434 1436 1439 1442 1444 1448 1450 1455 1457 1460 1462 1463 1465 1467 1470 1472 1476 1478 1482 1485 1487 1491 1494 1496 1500 1505 1509 1512 1515 1520
1459 1461 1456 1446 1439 1441 1437 1437 1431 1428 1428 1428 1427 1425 1422 1415 1414 1418 1424 1428 1429 1433 1437 1442 1446 1449 1451 1452 1454 1456 1457 1459 1461 1465 1469 1472 1474 1477 1479 1482 1485 1488 1490 1494 1499 1504 1508 1511 1514
1449 1450 1450 1438 1435 1435 1432 1427 1424 1422 1424 1423 1422 1422 1421 1415 1413 1413 1418 1421 1423 1427 1432 1436 1439 1442 1445 1447 1448 1450 1453 1453 1456 1459 1462 1466 1469 1471 1474 1477 1479 1482 1485 1490 1493 1498 1502 1506 1509
1442 1443 1443 1441 1432 1429 1429 1429 1423 1415 1416 1414 1415 1416 1417 1414 1412 1408 1413 1415 1419 1422 1427 1433 1436 1438 1439 1441 1444 1446 1446 1449 1450 1450 1454 1459 1462 1466 1468 1470 1473 1476 1479 1483 1487 1491 1495 1499 1504
1445 1438 1436 1434 1435 1441 1428 1440 1418 1416 1412 1409 1407 1410 1411 1409 1408 1404 1414 1417 1418 1420 1424 1429 1434 1436 1437 1439 1439 1440 1441 1442 1443 1444 1449 1453 1456 1458 1461 1463 1467 1470 1473 1476 1480 1485 1488 1493 1496
1442 1434 1436 1431 1435 1437 1428 1438 1402 1411 1410 1408 1402 1401 1403 1407 1412 1412 1411 1413 1418 1420 1423 1427 1432 1435 1436 1437 1435 1436 1436 1437 1438 1439 1444 1448 1450 1451 1455 1456 1460 1462 1466 1469 1474 1479 1481 1486 1489
1435 1431 1428 1429 1433 1440 1425 1435 1418 1418 1409 1401 1396 1394 1391 1396 1405 1410 1410 1413 1417 1419 1423 1425 1432 1433 1432 1434 1434 1433 1432 1432 1433 1435 1437 1441 1442 1444 1447 1450 1453 1457 1460 1463 1466 1470 1475 1478 1482
1438 1443 1445 1443 1442 1435 1419 1426 1416 1401 1399 1396 1395 1392 1380 1391 1403 1406 1406 1409 1414 1418 1421 1425 1432 1430 1429 1430 1430 1429 1428 1428 1429 1431 1432 1433 1435 1436 1439 1444 1448 1450 1453 1456 1461 1465 1468 1471 1475
1448 1453 1460 1444 1439 1430 1419 1419 1403 1397 1390 1389 1390 1393 1384 1391 1395 1402 1406 1408 1411 1415 1421 1426 1429 1429 1428 1427 1427 1426 1425 1425 1425 1426 1427 1428 1429 1430 1434 1438 1441 1443 1448 1451 1454 1458 1461 1464 1466
1448 1449 1452 1453 1440 1442 1426 1407 1398 1391 1381 1380 1382 1387 1385 1392 1397 1399 1404 1406 1409 1416 1422 1425 1424 1425 1425 1425 1424 1423 1422 1421 1421 1422 1423 1423 1424 1426 1430 1432 1435 1438 1442 1445 1448 1450 1453 1455 1457
1449 1445 1453 1451 1438 1432 1418 1413 1412 1397 1392 1387 1384 1383 1390 1394 1400 1399 1401 1405 1412 1417 1419 1420 1420 1422 1424 1423 1421 1419 1418 1417 1416 1417 1418 1418 1419 1422 1426 1429 1431 1433 1436 1438 1441 1444 1446 1448 1449
1450 1447 1449 1454 1443 1431 1433 1421 1427 1421 1410 1400 1399 1397 1390 1399 1397 1398 1404 1408 1412 1416 1418 1416 1416 1418 1421 1420 1419 1416 1414 1414 1413 1412 1413 1414 1415 1419 1422 1424 1426 1427 1429 1432 1434 1436 1438 1440 1442
1446 1453 1456 1451 1450 1447 1444 1434 1432 1428 1421 1402 1412 1407 1405 1400 1398 1403 1407 1410 1412 1413 1413 1414 1415 1416 1417 1417 1415 1412 1411 1410 1409 1408 1408 1409 1410 1413 1417 1418 1420 1420 1423 1426 1428 1430 1432 1434 1435